Location: Góry Miechowskie
(50.3599°N, 20.1803°E)
Time: 00:11:52
(UTC+00:00)

Vanguard 3 - All Passes

Search period start: 12 September 2024 00:00
Search period end: 22 September 2024 00:00
Orbit: 507 x 3226 km, 33.3° (Epoch: 10 September)

Date Brightness Start Highest point End Pass type
(mag) Time Alt. Az. Time Alt. Az. Time Alt. Az.
12 Sep - 03:37:43 10° SSE 03:45:59 14° SE 03:53:58 10° ESE visible
12 Sep - 05:43:02 10° SSW 05:58:28 31° SSE 06:11:15 10° ESE daylight
12 Sep - 07:55:18 10° WSW 08:11:41 40° S 08:23:14 10° ESE daylight
12 Sep - 10:10:34 10° WSW 10:24:00 33° SSW 10:32:55 10° SE daylight
12 Sep - 12:28:43 10° WSW 12:34:14 14° SW 12:38:41 10° SSW daylight
13 Sep - 04:24:35 10° S 04:37:59 24° SE 04:50:18 10° ESE daylight
13 Sep - 06:34:20 10° SW 06:51:04 38° SSE 07:04:08 10° ESE daylight
13 Sep - 08:48:18 10° WSW 09:04:12 39° S 09:15:04 10° SE daylight
13 Sep - 11:04:39 10° W 11:15:43 25° SSW 11:23:27 10° SSE daylight
14 Sep - 03:08:45 10° SSE 03:17:53 15° SE 03:26:56 10° ESE visible
14 Sep - 05:14:29 10° SSW 05:30:19 33° SSE 05:44:09 10° ESE daylight
14 Sep - 07:26:38 10° WSW 07:43:45 41° S 07:56:28 10° ESE daylight
14 Sep - 09:41:49 10° WSW 09:56:25 34° SSW 10:06:23 10° SE daylight
14 Sep - 11:59:59 10° WSW 12:06:56 16° SW 12:12:26 10° SSW daylight
15 Sep - 03:56:08 10° S 04:09:45 25° SE 04:22:57 10° E daylight
15 Sep - 06:05:49 10° SW 06:22:54 39° SSE 06:37:04 10° ESE daylight
15 Sep - 08:19:35 10° WSW 08:36:21 41° S 08:48:19 10° SE daylight
15 Sep - 10:35:53 10° W 10:48:11 26° SSW 10:56:54 10° SSE daylight
16 Sep - 02:40:11 10° SSE 02:49:41 16° SE 02:59:27 10° ESE visible
16 Sep - 04:46:08 10° SSW 05:02:00 34° SSE 05:16:47 10° E daylight
16 Sep - 06:58:04 10° WSW 07:15:37 43° S 07:29:27 10° ESE daylight
16 Sep - 09:13:03 10° WSW 09:28:37 36° SSW 09:39:38 10° SE daylight
16 Sep - 11:31:10 10° WSW 11:39:25 17° SW 11:45:55 10° S daylight
17 Sep - 03:27:53 10° SSW 03:41:25 26° SE 03:55:16 10° E visible
17 Sep - 05:37:27 10° SW 05:54:34 41° SSE 06:09:45 10° ESE daylight
17 Sep - 07:50:56 10° WSW 08:08:15 42° S 08:21:21 10° SE daylight
17 Sep - 10:07:05 10° W 10:20:26 28° SSW 10:30:08 10° SSE daylight
18 Sep - 02:11:55 10° SSE 02:21:25 17° SE 02:31:36 10° ESE visible
18 Sep - 04:17:57 10° SSW 04:33:34 35° SSE 04:49:08 10° E daylight
18 Sep - 06:29:37 10° WSW 06:47:18 44° S 07:02:11 10° ESE daylight
18 Sep - 08:44:19 10° W 09:00:35 37° SSW 09:12:41 10° SE daylight
18 Sep - 11:02:18 10° W 11:11:43 18° SW 11:19:09 10° S daylight
19 Sep - 02:59:52 10° SSW 03:13:01 27° SE 03:27:17 10° E visible
19 Sep - 05:09:15 10° SW 05:26:06 42° SSE 05:42:10 10° ESE daylight
19 Sep - 07:22:23 10° WSW 07:39:58 43° S 07:54:08 10° SE daylight
19 Sep - 09:38:17 10° W 09:52:28 29° SW 10:03:10 10° SSE daylight
20 Sep - 01:43:56 10° SSE 01:53:08 17° SE 02:03:22 10° E visible
20 Sep - 03:49:58 10° SSW 04:05:04 36° SSE 04:21:11 10° E visible
20 Sep - 06:01:19 10° WSW 06:18:48 45° S 06:34:40 10° ESE daylight
20 Sep - 08:15:39 10° W 08:32:21 38° SSW 08:45:29 10° SE daylight
20 Sep - 10:33:27 10° W 10:43:47 19° SW 10:52:07 10° S daylight
21 Sep - 02:32:02 10° SSW 02:44:35 27° SE 02:59:01 10° E visible
21 Sep - 04:41:12 10° SW 04:57:31 42° SSE 05:14:17 10° ESE daylight
21 Sep - 06:53:58 10° WSW 07:11:30 43° S 07:26:40 10° SE daylight
21 Sep - 09:09:32 10° W 09:24:16 29° SW 09:35:56 10° SSE daylight
